Location: Bun Machan
(52.1403°N, 7.3744°W)
Time: 18:10:45
(UTC+00:00)

Cosmos 1975 Rocket - Pass Details

Date: 14 July 2020
Orbit: 605 x 633 km, 82.5° (Epoch: 12 August)

Event Time Altitude Azimuth Distance (km) Brightness Sun altitude
Rises 03:30:46 0° 352° (N) 2,908 7.2 -6.9°
Reaches altitude 10° 03:33:03 10° 357° (N) 2,002 6.4 -6.7°
Maximum altitude 03:37:24 55° 75° (ENE) 757 3.9 -6.3°
Drops below altitude 10° 03:41:46 10° 154° (SSE) 2,002 5.5 -5.8°
Sets 03:44:02 0° 159° (SSE) 2,908 6.2 -5.6°
